Year,Month,Day,Hour,Minute,Value (Times are PST for temperature in C)
2009,05,31,00,00,14.80
2009,05,31,00,01,14.80
2009,05,31,00,02,14.80
2009,05,31,00,03,14.70
2009,05,31,00,04,14.70
2009,05,31,00,05,14.70
2009,05,31,00,06,14.70
2009,05,31,00,07,14.60
2009,05,31,00,08,14.60
2009,05,31,00,09,14.60
2009,05,31,00,10,14.60
2009,05,31,00,11,14.60
2009,05,31,00,12,14.60
2009,05,31,00,13,14.60
2009,05,31,00,14,14.60
2009,05,31,00,15,14.60
2009,05,31,00,16,14.60
2009,05,31,00,17,14.60
2009,05,31,00,18,14.60
2009,05,31,00,19,14.60
2009,05,31,00,20,14.60
2009,05,31,00,21,14.60
2009,05,31,00,22,14.60
2009,05,31,00,23,14.60
2009,05,31,00,24,14.60
2009,05,31,00,25,14.60
2009,05,31,00,26,14.60
2009,05,31,00,27,14.60
2009,05,31,00,28,14.60
2009,05,31,00,29,14.60
2009,05,31,00,30,14.60
2009,05,31,00,31,14.60
2009,05,31,00,32,14.60
2009,05,31,00,33,14.60
2009,05,31,00,34,14.60
2009,05,31,00,35,14.60
2009,05,31,00,36,14.60
2009,05,31,00,37,14.50
2009,05,31,00,38,14.50
2009,05,31,00,39,14.50
2009,05,31,00,40,14.50
2009,05,31,00,41,14.50
2009,05,31,00,42,14.50
2009,05,31,00,43,14.50
2009,05,31,00,44,14.50
2009,05,31,00,45,14.50
2009,05,31,00,46,14.40
2009,05,31,00,47,14.40
2009,05,31,00,48,14.40
2009,05,31,00,49,14.40
2009,05,31,00,50,14.40
2009,05,31,00,51,14.30
2009,05,31,00,52,14.30
2009,05,31,00,53,14.30
2009,05,31,00,54,14.30
2009,05,31,00,55,14.30
2009,05,31,00,56,14.20
2009,05,31,00,57,14.20
2009,05,31,00,58,14.20
2009,05,31,00,59,14.20
2009,05,31,01,00,14.20
2009,05,31,01,01,14.20
2009,05,31,01,02,14.20
2009,05,31,01,03,14.20
2009,05,31,01,04,14.20
2009,05,31,01,05,14.20
2009,05,31,01,06,14.10
2009,05,31,01,07,14.10
2009,05,31,01,08,14.10
2009,05,31,01,09,14.10
2009,05,31,01,10,14.10
2009,05,31,01,11,14.10
2009,05,31,01,12,14.10
2009,05,31,01,13,14.10
2009,05,31,01,14,14.10
2009,05,31,01,15,14.10
2009,05,31,01,16,14.10
2009,05,31,01,17,14.00
2009,05,31,01,18,14.00
2009,05,31,01,19,14.00
2009,05,31,01,20,14.00
2009,05,31,01,21,14.00
2009,05,31,01,22,14.00
2009,05,31,01,23,14.00
2009,05,31,01,24,13.90
2009,05,31,01,25,13.90
2009,05,31,01,26,13.90
2009,05,31,01,27,13.90
2009,05,31,01,28,13.90
2009,05,31,01,29,13.80
2009,05,31,01,30,13.80
2009,05,31,01,31,13.80
2009,05,31,01,32,13.70
2009,05,31,01,33,13.70
2009,05,31,01,34,13.70
2009,05,31,01,35,13.70
2009,05,31,01,36,13.70
2009,05,31,01,37,13.70
2009,05,31,01,38,13.70
2009,05,31,01,39,13.60
2009,05,31,01,40,13.60
2009,05,31,01,41,13.60
2009,05,31,01,42,13.60
2009,05,31,01,43,13.60
2009,05,31,01,44,13.60
2009,05,31,01,45,13.60
2009,05,31,01,46,13.60
2009,05,31,01,47,13.60
2009,05,31,01,48,13.50
2009,05,31,01,49,13.50
2009,05,31,01,50,13.50
2009,05,31,01,51,13.50
2009,05,31,01,52,13.50
2009,05,31,01,53,13.50
2009,05,31,01,54,13.50
2009,05,31,01,55,13.50
2009,05,31,01,56,13.40
2009,05,31,01,57,13.40
2009,05,31,01,58,13.40
2009,05,31,01,59,13.40
2009,05,31,02,00,13.40
2009,05,31,02,01,13.30
2009,05,31,02,02,13.30
2009,05,31,02,03,13.30
2009,05,31,02,04,13.30
2009,05,31,02,05,13.30
2009,05,31,02,06,13.30
2009,05,31,02,07,13.30
2009,05,31,02,08,13.30
2009,05,31,02,09,13.30
2009,05,31,02,10,13.30
2009,05,31,02,11,13.30
2009,05,31,02,12,13.30
2009,05,31,02,13,13.30
2009,05,31,02,14,13.20
2009,05,31,02,15,13.20
2009,05,31,02,16,13.20
2009,05,31,02,17,13.20
2009,05,31,02,18,13.20
2009,05,31,02,19,13.20
2009,05,31,02,20,13.20
2009,05,31,02,21,13.10
2009,05,31,02,22,13.10
2009,05,31,02,23,13.10
2009,05,31,02,24,13.00
2009,05,31,02,25,13.00
2009,05,31,02,26,13.00
2009,05,31,02,27,13.00
2009,05,31,02,28,12.90
2009,05,31,02,29,12.90
2009,05,31,02,30,12.90
2009,05,31,02,31,12.90
2009,05,31,02,32,12.80
2009,05,31,02,33,12.80
2009,05,31,02,34,12.80
2009,05,31,02,35,12.80
2009,05,31,02,36,12.80
2009,05,31,02,37,12.80
2009,05,31,02,38,12.80
2009,05,31,02,39,12.80
2009,05,31,02,40,12.80
2009,05,31,02,41,12.80
2009,05,31,02,42,12.80
2009,05,31,02,43,12.80
2009,05,31,02,44,12.80
2009,05,31,02,45,12.80
2009,05,31,02,46,12.80
2009,05,31,02,47,12.80
2009,05,31,02,48,12.80
2009,05,31,02,49,12.80
2009,05,31,02,50,12.70
2009,05,31,02,51,12.70
2009,05,31,02,52,12.70
2009,05,31,02,53,12.70
2009,05,31,02,54,12.70
2009,05,31,02,55,12.60
2009,05,31,02,56,12.60
2009,05,31,02,57,12.60
2009,05,31,02,58,12.60
2009,05,31,02,59,12.60
2009,05,31,03,00,12.50
2009,05,31,03,01,12.50
2009,05,31,03,02,12.50
2009,05,31,03,03,12.50
2009,05,31,03,04,12.50
2009,05,31,03,05,12.40
2009,05,31,03,06,12.40
2009,05,31,03,07,12.40
2009,05,31,03,08,12.40
2009,05,31,03,09,12.40
2009,05,31,03,10,12.40
2009,05,31,03,11,12.40
2009,05,31,03,12,12.40
2009,05,31,03,13,12.40
2009,05,31,03,14,12.30
2009,05,31,03,15,12.30
2009,05,31,03,16,12.30
2009,05,31,03,17,12.40
2009,05,31,03,18,12.40
2009,05,31,03,19,12.40
2009,05,31,03,20,12.40
2009,05,31,03,21,12.40
2009,05,31,03,22,12.40
2009,05,31,03,23,12.40
2009,05,31,03,24,12.40
2009,05,31,03,25,12.40
2009,05,31,03,26,12.40
2009,05,31,03,27,12.40
2009,05,31,03,28,12.40
2009,05,31,03,29,12.40
2009,05,31,03,30,12.40
2009,05,31,03,31,12.40
2009,05,31,03,32,12.30
2009,05,31,03,33,12.30
2009,05,31,03,34,12.30
2009,05,31,03,35,12.30
2009,05,31,03,36,12.30
2009,05,31,03,37,12.30
2009,05,31,03,38,12.30
2009,05,31,03,39,12.30
2009,05,31,03,40,12.30
2009,05,31,03,41,12.30
2009,05,31,03,42,12.20
2009,05,31,03,43,12.20
2009,05,31,03,44,12.20
2009,05,31,03,45,12.20
2009,05,31,03,46,12.10
2009,05,31,03,47,12.10
2009,05,31,03,48,12.10
2009,05,31,03,49,12.10
2009,05,31,03,50,12.10
2009,05,31,03,51,12.10
2009,05,31,03,52,12.10
2009,05,31,03,53,12.10
2009,05,31,03,54,12.10
2009,05,31,03,55,12.10
2009,05,31,03,56,12.10
2009,05,31,03,57,12.10
2009,05,31,03,58,12.10
2009,05,31,03,59,12.10
2009,05,31,04,00,12.10
2009,05,31,04,01,12.10
2009,05,31,04,02,12.10
2009,05,31,04,03,12.00
2009,05,31,04,04,12.00
2009,05,31,04,05,12.00
2009,05,31,04,06,12.00
2009,05,31,04,07,12.00
2009,05,31,04,08,12.00
2009,05,31,04,09,12.00
2009,05,31,04,10,12.00
2009,05,31,04,11,12.00
2009,05,31,04,12,12.00
2009,05,31,04,13,12.00
2009,05,31,04,14,12.00
2009,05,31,04,15,12.00
2009,05,31,04,16,12.00
2009,05,31,04,17,12.00
2009,05,31,04,18,12.10
2009,05,31,04,19,12.10
2009,05,31,04,20,12.10
2009,05,31,04,21,12.10
2009,05,31,04,22,12.10
2009,05,31,04,23,12.10
2009,05,31,04,24,12.10
2009,05,31,04,25,12.10
2009,05,31,04,26,12.10
2009,05,31,04,27,12.10
2009,05,31,04,28,12.10
2009,05,31,04,29,12.10
2009,05,31,04,30,12.10
2009,05,31,04,31,12.10
2009,05,31,04,32,12.00
2009,05,31,04,33,12.00
2009,05,31,04,34,12.00
2009,05,31,04,35,12.00
2009,05,31,04,36,12.00
2009,05,31,04,37,12.00
2009,05,31,04,38,12.00
2009,05,31,04,39,12.00
2009,05,31,04,40,12.00
2009,05,31,04,41,12.00
2009,05,31,04,42,12.00
2009,05,31,04,43,12.00
2009,05,31,04,44,12.00
2009,05,31,04,45,12.00
2009,05,31,04,46,12.00
2009,05,31,04,47,12.00
2009,05,31,04,48,12.00
2009,05,31,04,49,12.00
2009,05,31,04,50,11.90
2009,05,31,04,51,11.90
2009,05,31,04,52,11.90
2009,05,31,04,53,12.00
2009,05,31,04,54,12.00
2009,05,31,04,55,11.90
2009,05,31,04,56,11.90
2009,05,31,04,57,11.90
2009,05,31,04,58,11.90
2009,05,31,04,59,11.90
2009,05,31,05,00,11.90
2009,05,31,05,01,11.90
2009,05,31,05,02,11.90
2009,05,31,05,03,11.90
2009,05,31,05,04,11.90
2009,05,31,05,05,11.90
2009,05,31,05,06,11.90
2009,05,31,05,07,11.90
2009,05,31,05,08,11.80
2009,05,31,05,09,11.80
2009,05,31,05,10,11.80
2009,05,31,05,11,11.80
2009,05,31,05,12,11.80
2009,05,31,05,13,11.80
2009,05,31,05,14,11.80
2009,05,31,05,15,11.80
2009,05,31,05,16,11.80
2009,05,31,05,17,11.80
2009,05,31,05,18,11.80
2009,05,31,05,19,11.80
2009,05,31,05,20,11.80
2009,05,31,05,21,11.80
2009,05,31,05,22,11.80
2009,05,31,05,23,11.80
2009,05,31,05,24,11.80
2009,05,31,05,25,11.80
2009,05,31,05,26,11.80
2009,05,31,05,27,11.80
2009,05,31,05,28,11.80
2009,05,31,05,29,11.70
2009,05,31,05,30,11.70
2009,05,31,05,31,11.70
2009,05,31,05,32,11.70
2009,05,31,05,33,11.70
2009,05,31,05,34,11.70
2009,05,31,05,35,11.70
2009,05,31,05,36,11.70
2009,05,31,05,37,11.80
2009,05,31,05,38,11.80
2009,05,31,05,39,11.80
2009,05,31,05,40,11.80
2009,05,31,05,41,11.80
2009,05,31,05,42,11.80
2009,05,31,05,43,11.80
2009,05,31,05,44,11.80
2009,05,31,05,45,11.80
2009,05,31,05,46,11.80
2009,05,31,05,47,11.80
2009,05,31,05,48,11.90
2009,05,31,05,49,11.90
2009,05,31,05,50,11.90
2009,05,31,05,51,11.90
2009,05,31,05,52,12.00
2009,05,31,05,53,12.00
2009,05,31,05,54,12.00
2009,05,31,05,55,12.00
2009,05,31,05,56,12.10
2009,05,31,05,57,12.10
2009,05,31,05,58,12.00
2009,05,31,05,59,12.00
2009,05,31,06,00,12.00
2009,05,31,06,01,12.00
2009,05,31,06,02,12.00
2009,05,31,06,03,11.90
2009,05,31,06,04,11.90
2009,05,31,06,05,11.90
2009,05,31,06,06,11.90
2009,05,31,06,07,11.90
2009,05,31,06,08,11.90
2009,05,31,06,09,11.90
2009,05,31,06,10,11.90
2009,05,31,06,11,12.00
2009,05,31,06,12,12.00
2009,05,31,06,13,12.00
2009,05,31,06,14,12.00
2009,05,31,06,15,12.10
2009,05,31,06,16,12.10
2009,05,31,06,17,12.20
2009,05,31,06,18,12.30
2009,05,31,06,19,12.40
2009,05,31,06,20,12.50
2009,05,31,06,21,12.60
2009,05,31,06,22,12.70
2009,05,31,06,23,12.80
2009,05,31,06,24,12.90
2009,05,31,06,25,12.90
2009,05,31,06,26,13.00
2009,05,31,06,27,13.00
2009,05,31,06,28,13.10
2009,05,31,06,29,13.10
2009,05,31,06,30,13.10
2009,05,31,06,31,13.20
2009,05,31,06,32,13.20
2009,05,31,06,33,13.20
2009,05,31,06,34,13.30
2009,05,31,06,35,13.30
2009,05,31,06,36,13.30
2009,05,31,06,37,13.30
2009,05,31,06,38,13.30
2009,05,31,06,39,13.30
2009,05,31,06,40,13.30
2009,05,31,06,41,13.30
2009,05,31,06,42,13.30
2009,05,31,06,43,13.30
2009,05,31,06,44,13.30
2009,05,31,06,45,13.30
2009,05,31,06,46,13.30
2009,05,31,06,47,13.30
2009,05,31,06,48,13.30
2009,05,31,06,49,13.40
2009,05,31,06,50,13.40
2009,05,31,06,51,13.40
2009,05,31,06,52,13.50
2009,05,31,06,53,13.50
2009,05,31,06,54,13.50
2009,05,31,06,55,13.60
2009,05,31,06,56,13.60
2009,05,31,06,57,13.60
2009,05,31,06,58,13.60
2009,05,31,06,59,13.60
2009,05,31,07,00,13.60
2009,05,31,07,01,13.50
2009,05,31,07,02,13.50
2009,05,31,07,03,13.50
2009,05,31,07,04,13.50
2009,05,31,07,05,13.50
2009,05,31,07,06,13.50
2009,05,31,07,07,13.60
2009,05,31,07,08,13.60
2009,05,31,07,09,13.60
2009,05,31,07,10,13.70
2009,05,31,07,11,13.70
2009,05,31,07,12,13.80
2009,05,31,07,13,13.90
2009,05,31,07,14,13.90
2009,05,31,07,15,14.00
2009,05,31,07,16,14.10
2009,05,31,07,17,14.20
2009,05,31,07,18,14.30
2009,05,31,07,19,14.40
2009,05,31,07,20,14.50
2009,05,31,07,21,14.60
2009,05,31,07,22,14.70
2009,05,31,07,23,14.80
2009,05,31,07,24,14.90
2009,05,31,07,25,14.90
2009,05,31,07,26,15.00
2009,05,31,07,27,15.00
2009,05,31,07,28,15.00
2009,05,31,07,29,15.10
2009,05,31,07,30,15.10
2009,05,31,07,31,15.10
2009,05,31,07,32,15.10
2009,05,31,07,33,15.20
2009,05,31,07,34,15.30
2009,05,31,07,35,15.50
2009,05,31,07,36,15.60
2009,05,31,07,37,15.70
2009,05,31,07,38,15.80
2009,05,31,07,39,15.80
2009,05,31,07,40,15.90
2009,05,31,07,41,15.90
2009,05,31,07,42,16.00
2009,05,31,07,43,16.10
2009,05,31,07,44,16.10
2009,05,31,07,45,16.10
2009,05,31,07,46,16.10
2009,05,31,07,47,16.10
2009,05,31,07,48,16.20
2009,05,31,07,49,16.30
2009,05,31,07,50,16.30
2009,05,31,07,51,16.40
2009,05,31,07,52,16.40
2009,05,31,07,53,16.40
2009,05,31,07,54,16.40
2009,05,31,07,55,16.50
2009,05,31,07,56,16.60
2009,05,31,07,57,16.70
2009,05,31,07,58,16.70
2009,05,31,07,59,16.70
2009,05,31,08,00,16.70
2009,05,31,08,01,16.70
2009,05,31,08,02,16.80
2009,05,31,08,03,16.90
2009,05,31,08,04,17.00
2009,05,31,08,05,17.10
2009,05,31,08,06,17.10
2009,05,31,08,07,17.20
2009,05,31,08,08,17.30
2009,05,31,08,09,17.30
2009,05,31,08,10,17.20
2009,05,31,08,11,17.20
2009,05,31,08,12,17.30
2009,05,31,08,13,17.30
2009,05,31,08,14,17.30
2009,05,31,08,15,17.30
2009,05,31,08,16,17.30
2009,05,31,08,17,17.40
2009,05,31,08,18,17.50
2009,05,31,08,19,17.60
2009,05,31,08,20,17.60
2009,05,31,08,21,17.70
2009,05,31,08,22,17.80
2009,05,31,08,23,17.80
2009,05,31,08,24,17.90
2009,05,31,08,25,17.80
2009,05,31,08,26,17.70
2009,05,31,08,27,17.60
2009,05,31,08,28,17.60
2009,05,31,08,29,17.60
2009,05,31,08,30,17.60
2009,05,31,08,31,17.60
2009,05,31,08,32,17.60
2009,05,31,08,33,17.60
2009,05,31,08,34,17.70
2009,05,31,08,35,17.80
2009,05,31,08,36,17.80
2009,05,31,08,37,17.90
2009,05,31,08,38,17.90
2009,05,31,08,39,17.90
2009,05,31,08,40,17.90
2009,05,31,08,41,17.90
2009,05,31,08,42,17.90
2009,05,31,08,43,18.00
2009,05,31,08,44,18.10
2009,05,31,08,45,18.10
2009,05,31,08,46,18.10
2009,05,31,08,47,18.00
2009,05,31,08,48,17.90
2009,05,31,08,49,17.90
2009,05,31,08,50,18.00
2009,05,31,08,51,18.10
2009,05,31,08,52,18.20
2009,05,31,08,53,18.20
2009,05,31,08,54,18.40
2009,05,31,08,55,18.60
2009,05,31,08,56,18.70
2009,05,31,08,57,18.80
2009,05,31,08,58,18.90
2009,05,31,08,59,18.90
2009,05,31,09,00,18.90
2009,05,31,09,01,18.80
2009,05,31,09,02,18.80
2009,05,31,09,03,18.70
2009,05,31,09,04,18.70
2009,05,31,09,05,18.60
2009,05,31,09,06,18.60
2009,05,31,09,07,18.40
2009,05,31,09,08,18.30
2009,05,31,09,09,18.30
2009,05,31,09,10,18.30
2009,05,31,09,11,18.30
2009,05,31,09,12,18.30
2009,05,31,09,13,18.30
2009,05,31,09,14,18.40
2009,05,31,09,15,18.50
2009,05,31,09,16,18.60
2009,05,31,09,17,18.70
2009,05,31,09,18,18.70
2009,05,31,09,19,18.80
2009,05,31,09,20,18.80
2009,05,31,09,21,18.70
2009,05,31,09,22,18.60
2009,05,31,09,23,18.60
2009,05,31,09,24,18.60
2009,05,31,09,25,18.60
2009,05,31,09,26,18.60
2009,05,31,09,27,18.50
2009,05,31,09,28,18.50
2009,05,31,09,29,18.60
2009,05,31,09,30,18.60
2009,05,31,09,31,18.70
2009,05,31,09,32,18.80
2009,05,31,09,33,19.00
2009,05,31,09,34,19.00
2009,05,31,09,35,18.90
2009,05,31,09,36,18.90
2009,05,31,09,37,18.90
2009,05,31,09,38,18.90
2009,05,31,09,39,19.00
2009,05,31,09,40,19.10
2009,05,31,09,41,19.20
2009,05,31,09,42,19.20
2009,05,31,09,43,19.20
2009,05,31,09,44,19.10
2009,05,31,09,45,19.20
2009,05,31,09,46,19.20
2009,05,31,09,47,19.10
2009,05,31,09,48,19.10
2009,05,31,09,49,19.10
2009,05,31,09,50,19.20
2009,05,31,09,51,19.10
2009,05,31,09,52,19.10
2009,05,31,09,53,19.10
2009,05,31,09,54,19.10
2009,05,31,09,55,19.10
2009,05,31,09,56,19.10
2009,05,31,09,57,19.10
2009,05,31,09,58,19.20
2009,05,31,09,59,19.20
2009,05,31,10,00,19.10
2009,05,31,10,01,19.20
2009,05,31,10,02,19.30
2009,05,31,10,03,19.40
2009,05,31,10,04,19.40
2009,05,31,10,05,19.50
2009,05,31,10,06,19.40
2009,05,31,10,07,19.30
2009,05,31,10,08,19.30
2009,05,31,10,09,19.40
2009,05,31,10,10,19.40
2009,05,31,10,11,19.40
2009,05,31,10,12,19.30
2009,05,31,10,13,19.30
2009,05,31,10,14,19.20
2009,05,31,10,15,19.20
2009,05,31,10,16,19.20
2009,05,31,10,17,19.20
2009,05,31,10,18,19.20
2009,05,31,10,19,19.10
2009,05,31,10,20,19.10
2009,05,31,10,21,19.10
2009,05,31,10,22,19.00
2009,05,31,10,23,18.90
2009,05,31,10,24,18.90
2009,05,31,10,25,18.90
2009,05,31,10,26,18.90
2009,05,31,10,27,18.90
2009,05,31,10,28,18.90
2009,05,31,10,29,18.90
2009,05,31,10,30,18.80
2009,05,31,10,31,18.70
2009,05,31,10,32,18.70
2009,05,31,10,33,18.80
2009,05,31,10,34,18.90
2009,05,31,10,35,18.90
2009,05,31,10,36,18.90
2009,05,31,10,37,19.10
2009,05,31,10,38,19.10
2009,05,31,10,39,19.10
2009,05,31,10,40,19.10
2009,05,31,10,41,19.20
2009,05,31,10,42,19.20
2009,05,31,10,43,19.20
2009,05,31,10,44,19.20
2009,05,31,10,45,19.20
2009,05,31,10,46,19.20
2009,05,31,10,47,19.20
2009,05,31,10,48,19.20
2009,05,31,10,49,19.30
2009,05,31,10,50,19.30
2009,05,31,10,51,19.40
2009,05,31,10,52,19.50
2009,05,31,10,53,19.50
2009,05,31,10,54,19.60
2009,05,31,10,55,19.60
2009,05,31,10,56,19.60
2009,05,31,10,57,19.60
2009,05,31,10,58,19.70
2009,05,31,10,59,19.70
2009,05,31,11,00,19.70
2009,05,31,11,01,19.70
2009,05,31,11,02,19.50
2009,05,31,11,03,19.30
2009,05,31,11,04,19.30
2009,05,31,11,05,19.30
2009,05,31,11,06,19.30
2009,05,31,11,07,19.40
2009,05,31,11,08,19.40
2009,05,31,11,09,19.40
2009,05,31,11,10,19.50
2009,05,31,11,11,19.50
2009,05,31,11,12,19.60
2009,05,31,11,13,19.60
2009,05,31,11,14,19.50
2009,05,31,11,15,19.50
2009,05,31,11,16,19.50
2009,05,31,11,17,19.50
2009,05,31,11,18,19.50
2009,05,31,11,19,19.50
2009,05,31,11,20,19.50
2009,05,31,11,21,19.40
2009,05,31,11,22,19.40
2009,05,31,11,23,19.40
2009,05,31,11,24,19.50
2009,05,31,11,25,19.60
2009,05,31,11,26,19.60
2009,05,31,11,27,19.70
2009,05,31,11,28,19.80
2009,05,31,11,29,19.80
2009,05,31,11,30,19.90
2009,05,31,11,31,19.90
2009,05,31,11,32,19.70
2009,05,31,11,33,19.60
2009,05,31,11,34,19.60
2009,05,31,11,35,19.70
2009,05,31,11,36,19.80
2009,05,31,11,37,19.80
2009,05,31,11,38,19.70
2009,05,31,11,39,19.70
2009,05,31,11,40,19.50
2009,05,31,11,41,19.40
2009,05,31,11,42,19.30
2009,05,31,11,43,19.20
2009,05,31,11,44,19.10
2009,05,31,11,45,19.00
2009,05,31,11,46,18.90
2009,05,31,11,47,18.90
2009,05,31,11,48,19.00
2009,05,31,11,49,19.10
2009,05,31,11,50,19.00
2009,05,31,11,51,18.90
2009,05,31,11,52,18.70
2009,05,31,11,53,18.70
2009,05,31,11,54,18.80
2009,05,31,11,55,18.90
2009,05,31,11,56,18.90
2009,05,31,11,57,18.90
2009,05,31,11,58,18.90
2009,05,31,11,59,18.90
2009,05,31,12,00,18.90
2009,05,31,12,01,19.00
2009,05,31,12,02,19.10
2009,05,31,12,03,19.10
2009,05,31,12,04,19.10
2009,05,31,12,05,19.10
2009,05,31,12,06,19.20
2009,05,31,12,07,19.30
2009,05,31,12,08,19.30
2009,05,31,12,09,19.10
2009,05,31,12,10,19.00
2009,05,31,12,11,18.90
2009,05,31,12,12,18.90
2009,05,31,12,13,18.90
2009,05,31,12,14,18.80
2009,05,31,12,15,18.90
2009,05,31,12,16,19.00
2009,05,31,12,17,19.10
2009,05,31,12,18,19.10
2009,05,31,12,19,19.00
2009,05,31,12,20,18.90
2009,05,31,12,21,18.80
2009,05,31,12,22,18.80
2009,05,31,12,23,18.70
2009,05,31,12,24,18.70
2009,05,31,12,25,18.60
2009,05,31,12,26,18.50
2009,05,31,12,27,18.40
2009,05,31,12,28,18.20
2009,05,31,12,29,18.20
2009,05,31,12,30,18.20
2009,05,31,12,31,18.10
2009,05,31,12,32,18.00
2009,05,31,12,33,17.90
2009,05,31,12,34,17.90
2009,05,31,12,35,17.90
2009,05,31,12,36,17.90
2009,05,31,12,37,17.90
2009,05,31,12,38,18.10
2009,05,31,12,39,18.20
2009,05,31,12,40,18.10
2009,05,31,12,41,18.10
2009,05,31,12,42,18.10
2009,05,31,12,43,18.20
2009,05,31,12,44,18.20
2009,05,31,12,45,18.20
2009,05,31,12,46,18.30
2009,05,31,12,47,18.40
2009,05,31,12,48,18.40
2009,05,31,12,49,18.50
2009,05,31,12,50,18.60
2009,05,31,12,51,18.70
2009,05,31,12,52,18.90
2009,05,31,12,53,18.90
2009,05,31,12,54,19.00
2009,05,31,12,55,19.10
2009,05,31,12,56,19.10
2009,05,31,12,57,19.10
2009,05,31,12,58,19.20
2009,05,31,12,59,19.30
2009,05,31,13,00,19.40
2009,05,31,13,01,19.50
2009,05,31,13,02,19.60
2009,05,31,13,03,19.70
2009,05,31,13,04,19.90
2009,05,31,13,05,20.00
2009,05,31,13,06,20.20
2009,05,31,13,07,20.30
2009,05,31,13,08,20.40
2009,05,31,13,09,20.50
2009,05,31,13,10,20.50
2009,05,31,13,11,20.50
2009,05,31,13,12,20.50
2009,05,31,13,13,20.50
2009,05,31,13,14,20.30
2009,05,31,13,15,20.20
2009,05,31,13,16,20.10
2009,05,31,13,17,19.90
2009,05,31,13,18,19.90
2009,05,31,13,19,19.80
2009,05,31,13,20,19.70
2009,05,31,13,21,19.60
2009,05,31,13,22,19.60
2009,05,31,13,23,19.60
2009,05,31,13,24,19.60
2009,05,31,13,25,19.70
2009,05,31,13,26,19.70
2009,05,31,13,27,19.70
2009,05,31,13,28,19.60
2009,05,31,13,29,19.40
2009,05,31,13,30,19.40
2009,05,31,13,31,19.50
2009,05,31,13,32,19.50
2009,05,31,13,33,19.50
2009,05,31,13,34,19.40
2009,05,31,13,35,19.40
2009,05,31,13,36,19.40
2009,05,31,13,37,19.50
2009,05,31,13,38,19.60
2009,05,31,13,39,19.80
2009,05,31,13,40,19.90
2009,05,31,13,41,20.00
2009,05,31,13,42,20.10
2009,05,31,13,43,20.20
2009,05,31,13,44,20.20
2009,05,31,13,45,20.20
2009,05,31,13,46,20.20
2009,05,31,13,47,20.20
2009,05,31,13,48,20.20
2009,05,31,13,49,20.20
2009,05,31,13,50,20.20
2009,05,31,13,51,20.40
2009,05,31,13,52,20.50
2009,05,31,13,53,20.70
2009,05,31,13,54,20.80
2009,05,31,13,55,20.90
2009,05,31,13,56,20.90
2009,05,31,13,57,20.80
2009,05,31,13,58,20.70
2009,05,31,13,59,20.50
2009,05,31,14,00,20.40
2009,05,31,14,01,20.50
2009,05,31,14,02,20.50
2009,05,31,14,03,20.40
2009,05,31,14,04,20.50
2009,05,31,14,05,20.50
2009,05,31,14,06,20.50
2009,05,31,14,07,20.50
2009,05,31,14,08,20.50
2009,05,31,14,09,20.50
2009,05,31,14,10,20.40
2009,05,31,14,11,20.40
2009,05,31,14,12,20.30
2009,05,31,14,13,20.20
2009,05,31,14,14,20.20
2009,05,31,14,15,20.10
2009,05,31,14,16,20.10
2009,05,31,14,17,20.10
2009,05,31,14,18,20.20
2009,05,31,14,19,20.20
2009,05,31,14,20,20.20
2009,05,31,14,21,20.30
2009,05,31,14,22,20.30
2009,05,31,14,23,20.30
2009,05,31,14,24,20.40
2009,05,31,14,25,20.40
2009,05,31,14,26,20.30
2009,05,31,14,27,20.30
2009,05,31,14,28,20.30
2009,05,31,14,29,20.30
2009,05,31,14,30,20.20
2009,05,31,14,31,20.20
2009,05,31,14,32,20.20
2009,05,31,14,33,20.20
2009,05,31,14,34,20.10
2009,05,31,14,35,20.10
2009,05,31,14,36,20.00
2009,05,31,14,37,19.90
2009,05,31,14,38,19.90
2009,05,31,14,39,19.80
2009,05,31,14,40,19.60
2009,05,31,14,41,19.50
2009,05,31,14,42,19.40
2009,05,31,14,43,19.40
2009,05,31,14,44,19.40
2009,05,31,14,45,19.50
2009,05,31,14,46,19.50
2009,05,31,14,47,19.50
2009,05,31,14,48,19.50
2009,05,31,14,49,19.50
2009,05,31,14,50,19.50
2009,05,31,14,51,19.40
2009,05,31,14,52,19.40
2009,05,31,14,53,19.40
2009,05,31,14,54,19.40
2009,05,31,14,55,19.40
2009,05,31,14,56,19.50
2009,05,31,14,57,19.60
2009,05,31,14,58,19.70
2009,05,31,14,59,19.70
2009,05,31,15,00,19.70
2009,05,31,15,01,19.70
2009,05,31,15,02,19.70
2009,05,31,15,03,19.70
2009,05,31,15,04,19.80
2009,05,31,15,05,19.90
2009,05,31,15,06,19.90
2009,05,31,15,07,19.90
2009,05,31,15,08,19.80
2009,05,31,15,09,19.80
2009,05,31,15,10,19.80
2009,05,31,15,11,19.60
2009,05,31,15,12,19.50
2009,05,31,15,13,19.50
2009,05,31,15,14,19.40
2009,05,31,15,15,19.40
2009,05,31,15,16,19.50
2009,05,31,15,17,19.60
2009,05,31,15,18,19.60
2009,05,31,15,19,19.40
2009,05,31,15,20,19.30
2009,05,31,15,21,19.20
2009,05,31,15,22,19.10
2009,05,31,15,23,19.10
2009,05,31,15,24,19.10
2009,05,31,15,25,19.10
2009,05,31,15,26,19.10
2009,05,31,15,27,19.10
2009,05,31,15,28,19.20
2009,05,31,15,29,19.30
2009,05,31,15,30,19.40
2009,05,31,15,31,19.50
2009,05,31,15,32,19.70
2009,05,31,15,33,19.90
2009,05,31,15,34,20.00
2009,05,31,15,35,20.20
2009,05,31,15,36,20.40
2009,05,31,15,37,20.50
2009,05,31,15,38,20.50
2009,05,31,15,39,20.50
2009,05,31,15,40,20.50
2009,05,31,15,41,20.60
2009,05,31,15,42,20.70
2009,05,31,15,43,20.80
2009,05,31,15,44,21.00
2009,05,31,15,45,21.10
2009,05,31,15,46,21.30
2009,05,31,15,47,21.50
2009,05,31,15,48,21.60
2009,05,31,15,49,21.60
2009,05,31,15,50,21.60
2009,05,31,15,51,21.60
2009,05,31,15,52,21.60
2009,05,31,15,53,21.60
2009,05,31,15,54,21.70
2009,05,31,15,55,21.90
2009,05,31,15,56,22.00
2009,05,31,15,57,22.10
2009,05,31,15,58,22.10
2009,05,31,15,59,22.00
2009,05,31,16,00,21.70
2009,05,31,16,01,21.50
2009,05,31,16,02,21.40
2009,05,31,16,03,21.30
2009,05,31,16,04,21.30
2009,05,31,16,05,21.10
2009,05,31,16,06,21.10
2009,05,31,16,07,21.10
2009,05,31,16,08,21.10
2009,05,31,16,09,21.00
2009,05,31,16,10,20.90
2009,05,31,16,11,20.60
2009,05,31,16,12,20.40
2009,05,31,16,13,20.20
2009,05,31,16,14,20.20
2009,05,31,16,15,20.10
2009,05,31,16,16,20.00
2009,05,31,16,17,19.80
2009,05,31,16,18,19.70
2009,05,31,16,19,19.60
2009,05,31,16,20,19.50
2009,05,31,16,21,19.40
2009,05,31,16,22,19.30
2009,05,31,16,23,19.30
2009,05,31,16,24,19.10
2009,05,31,16,25,19.10
2009,05,31,16,26,19.10
2009,05,31,16,27,19.10
2009,05,31,16,28,19.00
2009,05,31,16,29,19.00
2009,05,31,16,30,19.10
2009,05,31,16,31,19.10
2009,05,31,16,32,19.10
2009,05,31,16,33,19.10
2009,05,31,16,34,19.20
2009,05,31,16,35,19.30
2009,05,31,16,36,19.30
2009,05,31,16,37,19.40
2009,05,31,16,38,19.50
2009,05,31,16,39,19.60
2009,05,31,16,40,19.70
2009,05,31,16,41,19.70
2009,05,31,16,42,19.70
2009,05,31,16,43,19.70
2009,05,31,16,44,19.70
2009,05,31,16,45,19.70
2009,05,31,16,46,19.70
2009,05,31,16,47,19.50
2009,05,31,16,48,19.50
2009,05,31,16,49,19.40
2009,05,31,16,50,19.30
2009,05,31,16,51,19.20
2009,05,31,16,52,19.20
2009,05,31,16,53,19.20
2009,05,31,16,54,19.10
2009,05,31,16,55,19.10
2009,05,31,16,56,19.10
2009,05,31,16,57,19.10
2009,05,31,16,58,19.10
2009,05,31,16,59,19.10
2009,05,31,17,00,19.10
2009,05,31,17,01,19.20
2009,05,31,17,02,19.20
2009,05,31,17,03,19.20
2009,05,31,17,04,19.10
2009,05,31,17,05,19.10
2009,05,31,17,06,19.10
2009,05,31,17,07,19.10
2009,05,31,17,08,19.10
2009,05,31,17,09,19.10
2009,05,31,17,10,19.20
2009,05,31,17,11,19.30
2009,05,31,17,12,19.40
2009,05,31,17,13,19.40
2009,05,31,17,14,19.50
2009,05,31,17,15,19.60
2009,05,31,17,16,19.70
2009,05,31,17,17,19.60
2009,05,31,17,18,19.70
2009,05,31,17,19,19.70